Date String (YYYY-MM-DD hh:mm:ss) UTC,Instrument flags,Ambient pressure (hPa),Sample flow (lpm),Bypass flow (lpm),Sample temperature (°C),Ambient temperature (°C),ASC tube jacket temperature (°C),LED temperature (°C),Box temperature (°C),Sample RH (%),Span deviation,Mass concentration (μg/m³),Mass concentration (μg/m³),Mass concentration (μg/m³)
DateTimeUTC,F1_M11,P_M11,Q1_M11,Q2_M11,T1_M11,T2_M11,T3_M11,T4_M11,T5_M11,U1_M11,ZSPAN_M11,X0_M11,X2_M11,X1_M11
2021-09-26 01:00:00,,0825.8,5.02,0.00,29.4,28.6,00.0,38.3,31.3,14.1,0002.0,0019.40,0007.49,0006.33
2021-09-26 01:01:00,,0825.8,4.99,0.00,29.5,28.7,00.0,38.3,31.4,13.9,0002.2,0019.89,0007.50,0006.32
2021-09-26 01:02:00,,0825.7,5.00,0.00,29.5,28.6,00.0,38.4,31.4,13.6,0002.3,0020.64,0007.50,0006.32
2021-09-26 01:03:00,,0825.7,5.02,0.00,29.4,26.7,00.0,38.4,30.9,13.6,0002.7,0020.37,0007.51,0006.31
2021-09-26 01:04:00,,0825.7,5.00,0.00,29.2,25.3,00.0,38.4,30.5,13.8,0002.4,0020.73,0007.49,0006.31
2021-09-26 01:05:00,,0825.7,5.00,0.00,29.1,25.6,00.0,38.3,30.5,13.8,0002.5,0021.16,0007.49,0006.30
2021-09-26 01:06:00,,0825.7,4.99,0.00,29.1,26.0,00.0,38.3,30.6,13.7,0002.5,0020.52,0007.47,0006.29
2021-09-26 01:07:00,,0825.7,5.00,0.00,29.1,26.6,00.0,38.3,30.8,13.6,0002.3,0020.08,0007.43,0006.28
2021-09-26 01:08:00,,0825.7,5.01,0.00,29.1,27.0,00.0,38.2,30.9,13.5,0001.9,0020.34,0007.40,0006.26
2021-09-26 01:09:00,,0825.7,4.98,0.00,29.1,27.4,00.0,38.2,31.0,13.5,0002.3,0019.48,0007.29,0006.24
2021-09-26 01:10:00,,0825.7,5.01,0.00,29.2,27.7,00.0,38.2,31.0,13.4,0002.1,0018.74,0007.26,0006.22
2021-09-26 01:11:00,,0825.7,5.00,0.00,29.2,28.0,00.0,38.2,31.1,13.3,0001.8,0018.23,0007.23,0006.20
2021-09-26 01:12:00,,0825.7,4.99,0.00,29.3,28.2,00.0,38.3,31.2,13.4,0001.8,0018.09,0007.21,0006.22
2021-09-26 01:13:00,,0825.7,5.01,0.00,29.3,28.4,00.0,38.3,31.2,13.2,0001.7,0017.76,0007.28,0006.25
2021-09-26 01:14:00,,0825.8,4.98,0.00,29.4,28.6,00.0,38.3,31.3,13.1,0001.5,0017.39,0007.28,0006.26
2021-09-26 01:15:00,,0825.7,5.02,0.00,29.4,28.7,00.0,38.3,31.4,13.0,0001.5,0016.30,0007.29,0006.28
2021-09-26 01:16:00,,0825.8,4.98,0.00,29.5,28.8,00.0,38.4,31.4,12.9,0001.8,0016.33,0007.33,0006.29
2021-09-26 01:17:00,,0825.8,5.01,0.00,29.5,27.5,00.0,38.4,31.1,12.8,0002.0,0016.36,0007.38,0006.30
2021-09-26 01:18:00,,0826.1,4.99,0.00,29.3,25.5,00.0,38.4,30.5,12.9,0002.0,0016.39,0007.44,0006.31
2021-09-26 01:19:00,,0825.9,5.00,0.00,29.1,25.3,00.0,38.3,30.4,12.9,0002.6,0016.06,0007.50,0006.33
2021-09-26 01:20:00,,0825.7,5.01,0.00,29.1,25.7,00.0,38.3,30.5,12.9,0002.4,0016.10,0007.50,0006.33
2021-09-26 01:21:00,,0825.9,5.00,0.00,29.0,26.2,00.0,38.2,30.6,12.9,0002.2,0015.75,0007.49,0006.34
2021-09-26 01:22:00,,0826.1,4.99,0.00,29.0,26.7,00.0,38.2,30.7,12.8,0002.3,0015.63,0007.46,0006.34
2021-09-26 01:23:00,,0826.0,5.01,0.00,29.1,27.1,00.0,38.2,30.8,12.8,0002.8,0015.01,0007.50,0006.30
2021-09-26 01:24:00,,0826.1,4.99,0.00,29.1,27.5,00.0,38.2,30.9,12.8,0002.9,0015.15,0007.46,0006.26
2021-09-26 01:25:00,,0826.0,5.02,0.00,29.1,27.8,00.0,38.2,31.0,12.8,0003.1,0016.10,0007.43,0006.23
2021-09-26 01:26:00,,0826.2,5.00,0.00,29.2,28.0,00.0,38.2,31.1,12.7,0003.0,0016.05,0007.35,0006.19
2021-09-26 01:27:00,,0826.0,5.01,0.00,29.2,28.2,00.0,38.2,31.1,12.7,0002.5,0015.34,0007.31,0006.17
2021-09-26 01:28:00,,0826.1,5.00,0.00,29.3,28.4,00.0,38.3,31.2,12.6,0002.3,0015.53,0007.24,0006.14
2021-09-26 01:29:00,,0826.1,4.99,0.00,29.4,28.5,00.0,38.3,31.3,12.7,0002.7,0015.53,0007.21,0006.12
2021-09-26 01:30:00,,0826.2,5.00,0.00,29.4,28.6,00.0,38.3,31.3,12.6,0002.4,0014.69,0007.15,0006.10
2021-09-26 01:31:00,,0826.0,5.00,0.00,29.5,28.7,00.0,38.3,31.4,12.6,0002.6,0014.44,0007.16,0006.09
2021-09-26 01:32:00,,0825.8,4.99,0.00,29.5,28.8,00.0,38.4,31.4,12.6,0002.4,0014.54,0007.16,0006.10
2021-09-26 01:33:00,,0825.9,5.00,0.00,29.5,27.5,00.0,38.4,31.1,12.6,0002.3,0014.42,0007.19,0006.10
2021-09-26 01:34:00,,0826.2,5.01,0.00,29.3,26.1,00.0,38.4,30.7,12.7,0001.8,0014.66,0007.20,0006.11
2021-09-26 01:35:00,,0826.2,4.98,0.00,29.3,26.3,00.0,38.4,30.8,12.7,0001.7,0014.50,0007.20,0006.12
2021-09-26 01:36:00,,0825.8,5.00,0.00,29.2,26.7,00.0,38.3,30.8,12.7,0001.5,0013.84,0007.20,0006.11
2021-09-26 01:37:00,,0825.7,4.98,0.00,29.2,27.1,00.0,38.3,30.9,12.8,0001.8,0014.37,0007.27,0006.13
2021-09-26 01:38:00,,0825.8,5.01,0.00,29.2,27.4,00.0,38.3,31.0,12.7,0001.7,0014.46,0007.28,0006.14
2021-09-26 01:39:00,,0825.8,5.00,0.00,29.3,27.8,00.0,38.3,31.1,12.7,0002.2,0014.15,0007.31,0006.16
2021-09-26 01:40:00,,0825.8,4.99,0.00,29.3,28.0,00.0,38.3,31.1,12.6,0002.1,0013.75,0007.27,0006.15
2021-09-26 01:41:00,,0825.8,5.00,0.00,29.4,28.2,00.0,38.3,31.2,12.5,0001.8,0014.01,0007.34,0006.16
2021-09-26 01:42:00,,0825.8,5.00,0.00,29.4,28.4,00.0,38.4,31.3,12.5,0001.5,0014.36,0007.35,0006.17
2021-09-26 01:43:00,,0825.8,4.98,0.00,29.4,28.5,00.0,38.4,31.3,12.4,0001.5,0014.44,0007.37,0006.16
2021-09-26 01:44:00,,0825.9,5.02,0.00,29.5,28.7,00.0,38.4,31.4,12.4,0001.9,0014.87,0007.37,0006.16
2021-09-26 01:45:00,,0825.8,4.98,0.00,29.5,28.7,00.0,38.4,31.4,12.3,0002.2,0015.48,0007.35,0006.17
2021-09-26 01:46:00,,0825.8,5.01,0.00,29.5,27.1,00.0,38.4,31.0,12.3,0002.3,0015.58,0007.33,0006.18
2021-09-26 01:47:00,,0825.7,5.01,0.00,29.3,26.2,00.0,38.4,30.7,12.4,0002.3,0015.67,0007.35,0006.20
2021-09-26 01:48:00,,0825.8,5.00,0.00,29.3,26.4,00.0,38.4,30.8,12.4,0002.2,0016.03,0007.33,0006.21
2021-09-26 01:49:00,,0825.9,5.00,0.00,29.2,26.7,00.0,38.4,30.8,12.4,0002.3,0016.63,0007.34,0006.20
2021-09-26 01:50:00,,0825.9,5.01,0.00,29.2,27.1,00.0,38.4,30.9,12.4,0002.0,0017.28,0007.34,0006.21
2021-09-26 01:51:00,,0825.9,5.00,0.00,29.3,27.5,00.0,38.4,31.0,12.4,0001.6,0017.37,0007.34,0006.23
2021-09-26 01:52:00,,0826.0,5.01,0.00,29.3,27.8,00.0,38.4,31.1,12.4,0001.7,0017.33,0007.32,0006.23
2021-09-26 01:53:00,,0826.0,5.01,0.00,29.3,28.0,00.0,38.4,31.1,12.3,0002.1,0017.08,0007.30,0006.23
2021-09-26 01:54:00,,0826.0,5.00,0.00,29.4,28.2,00.0,38.4,31.2,12.4,0002.5,0016.68,0007.24,0006.23
2021-09-26 01:55:00,,0826.0,5.00,0.00,29.4,28.4,00.0,38.4,31.3,12.4,0002.2,0016.34,0007.26,0006.25
2021-09-26 01:56:00,,0826.0,5.00,0.00,29.5,28.5,00.0,38.4,31.3,12.4,0001.9,0016.40,0007.27,0006.27
2021-09-26 01:57:00,,0826.0,5.00,0.00,29.5,28.6,00.0,38.4,31.4,12.3,0001.9,0017.28,0007.30,0006.29
2021-09-26 01:58:00,,0826.0,4.98,0.00,29.6,28.7,00.0,38.5,31.4,12.3,0001.6,0017.26,0007.31,0006.28
2021-09-26 01:59:00,,0826.0,5.01,0.00,29.6,28.6,00.0,38.5,31.4,12.2,0001.6,0017.15,0007.39,0006.30
